Regional Weather Roundup
Issued by NWS

Home | Current Version | Previous Version | Text Only | Print | Product List | Glossary Off
Versions: 1 2 3 4 5 6 7 8 9 10 11 12 13 14 15 16 17 18 19 20 21 22 23 24 25 26 27 28 29 30 31 32 33 34 35 36 37 38 39 40 41 42 43 44 45 46 47 48 49 50

000
ASUS44 KMEG 282010
RWRTN
TENNESSEE HOURLY STATE WEATHER ROUNDUP
NATIONAL WEATHER SERVICE MEMPHIS TN
200 PM CST WED JAN 28 2015

TNZ002-004-019-021-049-052-054-088>092-282100-
WEST TENNESSEE

CITY           SKY/WX    TMP DP  RH WIND       PRES   REMARKS
MEMPHIS INTL   MOSUNNY   58  30  34 SE7       30.18F
NWS MEMPHIS      N/A     58 N/A N/A MISG        N/A
JACKSON        SUNNY     54  27  35 S7        30.21F
DYERSBURG      SUNNY     52  25  35 SE12      30.21F
UNION CITY     SUNNY     46  30  53 SE8       30.20F
PARIS          SUNNY     46  27  46 S8        30.22F
LEXINGTON      SUNNY     50  27  40 VRB6      30.22F
SAVANNAH       SUNNY     52  28  40 VRB5      30.24F
$$

TNZ008-025-027-028-033-062-065-066-282100-
NORTH MIDDLE TENNESSEE

CITY           SKY/WX    TMP DP  RH WIND       PRES   REMARKS
NASHVILLE      MOSUNNY   49  24  37 SE8       30.25F
CLARKSVILLE    SUNNY     47  24  40 S10       30.23F
SMYRNA         SUNNY     49  22  34 S7        30.26F
COOKEVILLE     SUNNY     46  21  36 W5        30.24S
CROSSVILLE     SUNNY     43  11  27 SE7       30.23F
$$

TNZ061-075-076-078-094-096-097-282100-
SOUTH MIDDLE TENNESSEE

CITY           SKY/WX    TMP DP  RH WIND       PRES   REMARKS
FAYETTEVILLE   SUNNY     48  25  40 N10G23    30.23F
TULLAHOMA      SUNNY     48  19  32 SW3       30.24F
WINCHESTER     SUNNY     50  21  32 E5        30.24F
MCMINNVILLE    SUNNY     48  19  32 CALM      30.24S
COLUMBIA       SUNNY     50  28  43 E6        30.22F
SHELBYVILLE    SUNNY     50  25  37 VRB3      30.25F
$$

TNZ017-018-042-046-047-282100-
NORTHEAST TENNESSEE

CITY           SKY/WX    TMP DP  RH WIND       PRES   REMARKS
TRI CITIES     SUNNY     37  18  46 VRB3      30.27S
ELIZABETHTON   CLEAR     36  18  48 SW9       30.25R WCI  29
$$

TNZ012-013-036-069-073-074-282100-
CENTRAL EAST TENNESSEE

CITY           SKY/WX    TMP DP  RH WIND       PRES   REMARKS
KNOXVILLE      MOSUNNY   42  14  32 N3        30.27
OAK RIDGE      SUNNY     43  11  27 CALM      30.29F
GATLINBURG     CLEAR     41  12  30 CALM      30.27F
MORRISTOWN     CLEAR     39  19  45 W3        30.27F
$$

TNZ083-085-099-282100-
SOUTHEAST TENNESSEE

CITY           SKY/WX    TMP DP  RH WIND       PRES   REMARKS
CHATTANOOGA    MOSUNNY   47  17  30 N7        30.27F
$$

SKY/WX REPORTED AS FAIR MEANS FEW OR NO CLOUDS BELOW
12 THOUSAND FEET.



USA.gov is the U.S. government's official web portal to all federal, state and local government web resources and services.